Wind_Speed
11 10 10 10 10 11 11 12 12 13 13 14 14 14 13 13 12 12 11 10 10 10 10 10 9 9 8 8 8 8 8 8 8 8 8 8 7 7 7 7 6 6 6
9 9 8 8 9 10 10 11 11 12 12 13 13 13 12 12 11 11 10 10 10 10 10 9 9 8 8 8 8 8 8 8 8 8 8 8 7 7 7 7 7 6 6
8 8 8 7 8 8 9 10 10 11 12 12 12 12 12 11 11 10 10 9 9 9 9 9 9 8 8 8 7 7 8 8 8 8 8 8 7 7 6 6 6 6 5
7 7 6 6 7 7 8 9 10 10 11 11 11 11 11 10 10 9 9 9 9 8 8 8 9 9 8 8 7 8 8 8 8 8 8 7 7 7 6 6 5 5 5
6 6 5 5 6 6 7 8 9 10 10 11 10 10 10 10 9 9 9 8 8 8 8 8 8 8 8 8 8 8 8 8 7 8 7 7 6 6 6 5 5 5 4
5 5 4 4 5 6 6 7 8 9 9 10 10 10 9 9 9 9 8 8 8 8 8 7 7 8 7 7 7 7 7 7 7 7 7 6 6 6 5 5 4 4 4
4 4 3 3 3 4 5 6 7 8 8 9 9 9 9 9 8 8 8 7 7 7 7 7 7 7 6 7 6 6 6 6 6 6 6 6 5 5 5 4 4 4 3
3 3 2 2 2 3 4 5 6 7 7 8 8 8 8 8 7 7 7 7 7 6 6 6 6 6 6 6 6 6 6 6 6 6 5 5 5 4 4 4 3 3 3
3 2 1 1 1 2 3 4 5 6 6 7 7 7 7 7 6 6 7 6 6 6 5 6 6 6 6 6 6 6 6 5 5 4 4 4 4 4 3 3 3 2 2
3 2 1 0 1 2 2 3 4 5 5 5 5 5 6 6 5 6 6 6 6 5 5 5 5 5 6 6 5 5 5 5 4 4 4 3 3 3 3 2 2 1 1
2 2 1 0 1 2 2 2 3 4 4 4 4 4 5 5 4 4 5 5 5 5 5 5 5 5 5 5 5 5 4 4 4 3 3 3 3 2 2 1 1 1 0
3 2 1 0 1 2 2 3 3 3 4 4 4 4 4 4 4 4 4 4 4 4 4 4 5 5 4 4 4 4 4 4 3 3 2 2 2 2 1 0 0 0 1
4 2 1 0 1 1 2 2 3 3 3 4 4 4 3 4 4 4 3 3 3 3 3 4 4 4 4 3 3 3 3 3 3 2 2 2 2 1 1 1 1 1 2
4 3 2 1 0 1 2 3 3 4 4 4 4 4 4 4 4 4 3 3 2 2 3 4 4 4 3 3 2 2 2 2 2 2 2 2 1 1 1 1 2 2 2
4 3 2 2 1 1 2 3 3 3 3 4 4 4 4 4 4 4 5 4 3 2 3 4 4 4 3 3 2 2 2 2 1 1 1 1 1 1 1 1 2 2 2
4 3 2 2 2 2 2 2 2 4 4 3 4 4 5 5 5 5 5 5 4 3 3 4 3 3 3 3 2 2 2 2 1 1 1 0 0 0 1 2 2 2 2
5 4 3 3 3 3 3 2 3 4 4 5 5 5 6 6 6 6 6 6 6 5 4 4 5 4 4 3 3 3 2 2 2 2 2 2 1 1 2 2 2 2 2
5 5 5 5 4 4 4 4 4 5 5 5 6 7 8 8 8 8 8 7 7 6 6 5 6 6 6 5 4 4 4 3 3 2 2 3 2 2 2 3 2 3 3
6 5 5 6 5 5 5 5 4 5 5 6 7 9 9 9 9 9 8 8 8 8 7 7 7 7 7 7 6 6 5 4 4 3 4 4 4 3 3 3 4 4 4
6 6 6 6 6 6 6 6 5 6 6 7 7 8 10 11 10 10 10 10 10 10 9 8 8 8 8 8 8 7 7 6 6 5 5 5 5 5 5 5 5 5 5
7 8 7 7 8 8 7 7 7 7 7 7 8 8 9 10 11 11 11 11 11 11 11 10 9 9 9 9 9 9 9 8 7 7 7 6 7 7 7 7 7 6 7
8 9 9 9 9 9 9 8 8 9 9 9 9 10 10 10 11 11 12 11 11 12 12 11 11 11 11 11 10 10 10 10 10 9 9 9 8 8 9 9 9 9 9
10 11 11 11 10 10 10 11 11 10 10 10 10 10 10 11 12 12 12 12 12 12 12 13 13 12 12 12 12 12 12 12 12 11 11 11 10 10 11 11 11 11 11
11 12 12 11 11 11 11 13 13 12 11 11 11 11 10 11 12 11 12 13 13 12 12 14 14 14 14 14 13 13 13 13 13 13 13 13 13 13 13 13 13 13 13
12 12 12 12 11 12 13 14 14 14 13 12 12 12 12 12 13 13 13 13 13 13 13 14 15 16 15 15 15 15 15 15 16 16 16 15 15 15 15 15 15 16 16
12 13 13 12 12 14 14 14 13 13 14 14 13 13 12 12 13 14 14 14 14 14 14 15 15 16 17 17 18 17 17 17 18 18 18 18 18 18 18 18 18 18 19
Wind_Direction
101 100 101 105 107 107 106 103 100 98 97 95 93 92 92 91 90 91 90 91 92 93 94 94 92 92 94 96 97 99 101 101 102 103 106 106 105 105 106 106 106 110 114
102 102 103 105 104 105 106 104 102 101 100 98 96 96 94 91 91 92 92 93 93 94 95 96 96 95 95 97 99 102 103 101 102 103 105 107 105 106 107 108 110 107 108
102 104 108 109 109 109 108 107 105 104 103 101 99 98 96 93 93 94 95 95 95 96 98 98 98 98 99 102 103 104 104 105 106 105 103 103 105 107 107 109 109 107 109
100 104 108 114 117 116 115 114 111 109 106 103 100 100 99 96 95 96 96 97 98 99 99 101 100 101 103 107 108 107 104 104 106 107 103 101 103 106 106 106 108 108 111
101 105 109 116 120 121 121 122 119 115 110 107 105 103 101 98 97 98 98 97 98 98 100 104 104 102 105 108 109 110 107 107 106 107 106 104 105 107 107 106 106 111 114
106 105 111 118 121 123 126 128 127 121 116 112 109 107 104 100 98 98 99 99 100 101 101 103 106 105 106 108 110 113 111 112 112 111 109 108 105 102 103 106 108 107 110
102 106 113 121 124 129 133 135 133 127 123 118 115 113 109 104 101 100 100 102 103 105 106 107 109 109 109 110 112 117 117 113 116 116 113 109 107 103 102 107 111 111 111
94 99 120 132 130 137 141 141 141 136 130 125 121 120 117 111 108 104 103 105 108 107 107 111 113 114 112 112 112 119 117 111 114 117 117 114 113 109 103 102 108 113 113
89 82 107 156 155 151 148 148 149 146 139 133 129 125 124 119 115 109 108 110 111 112 112 110 116 120 116 113 113 116 116 113 112 116 119 120 119 116 111 106 106 113 114
88 82 74 192 182 171 159 155 156 157 152 146 140 132 129 128 121 116 115 117 118 117 118 117 116 118 115 112 114 117 116 114 112 115 123 126 126 119 116 115 112 110 116
78 92 95 145 198 194 188 184 177 173 169 163 154 146 141 140 134 128 125 125 122 117 118 120 119 118 116 114 118 122 120 119 115 115 118 125 128 120 119 113 104 93 62
61 82 100 69 212 223 224 218 207 199 186 177 171 165 162 159 154 145 139 134 129 123 124 125 129 127 124 121 122 125 126 123 122 117 113 111 115 118 115 85 29 343 320
53 54 33 279 230 231 227 236 239 227 213 202 196 190 183 179 174 167 153 149 141 139 142 144 149 144 137 132 131 128 128 130 129 126 118 108 106 102 60 352 324 316 308
48 43 37 32 322 263 253 261 263 244 231 223 217 211 202 194 191 190 183 172 161 163 168 167 169 166 161 158 149 142 140 133 134 130 124 115 108 90 18 357 342 331 322
36 33 31 23 7 327 285 280 269 248 244 233 225 222 216 213 214 211 209 204 197 193 187 181 182 183 187 186 181 183 181 171 156 152 134 106 99 67 9 354 358 353 341
28 18 1 341 325 334 326 302 271 255 244 236 231 225 224 223 225 226 222 218 214 206 201 201 199 200 207 210 207 197 203 206 206 212 210 216 30 12 349 339 347 346 349
24 15 358 334 321 324 321 304 280 269 251 247 238 229 231 235 233 231 230 228 224 219 216 217 218 219 221 224 224 219 227 229 236 243 248 249 260 283 304 311 323 328 326
10 6 0 346 331 331 318 306 286 274 259 261 250 241 244 242 238 234 231 230 228 225 224 225 230 231 231 232 231 235 241 242 246 255 256 256 270 281 291 293 303 306 309
351 348 347 345 343 334 323 312 299 285 275 270 259 254 245 240 240 233 229 228 229 229 228 230 233 236 236 235 237 241 248 252 249 255 258 262 269 278 285 283 291 297 299
336 334 332 333 331 326 323 312 307 301 299 296 289 273 256 250 246 239 233 234 237 233 234 236 235 237 237 238 241 245 249 254 252 254 257 263 269 275 278 280 281 289 293
329 326 322 320 322 318 314 308 307 307 310 308 301 290 270 260 254 248 245 241 240 239 238 240 241 240 240 240 244 247 250 253 253 254 259 264 269 273 276 276 277 281 284
320 318 318 313 315 314 312 309 304 305 307 306 296 292 277 265 257 254 251 246 246 245 242 242 243 244 245 243 246 251 252 255 254 256 262 264 268 272 273 275 275 278 281
314 314 313 310 309 309 309 306 302 301 303 300 297 290 279 267 263 258 250 247 249 248 243 243 245 245 247 246 247 251 254 257 256 259 263 267 269 270 273 275 275 277 279
311 312 310 309 309 309 308 304 304 300 298 295 292 289 280 273 262 258 252 249 250 252 248 245 245 246 248 249 250 252 256 259 261 264 267 270 270 271 272 274 275 274 276
306 309 305 305 306 309 307 305 305 303 298 296 291 287 283 275 265 259 256 254 251 252 250 248 247 248 250 250 252 254 258 260 262 264 266 269 271 272 273 274 275 275 277
299 303 303 303 301 303 303 301 301 298 299 297 291 286 282 275 267 260 259 256 254 254 254 253 254 252 252 253 255 256 259 261 263 264 266 268 270 271 272 273 274 275 278
Height
5904 5903 5903 5903 5903 5903 5903 5902 5902 5902 5902 5902 5902 5902 5902 5902 5902 5901 5902 5902 5902 5901 5902 5902 5902 5902 5902 5903 5903 5903 5903 5903 5903 5903 5903 5903 5903 5903 5903 5903 5903 5903 5903
5905 5905 5905 5905 5904 5904 5904 5904 5904 5904 5903 5903 5903 5903 5903 5903 5903 5903 5903 5903 5903 5903 5903 5903 5903 5904 5904 5904 5904 5904 5904 5904 5904 5904 5904 5904 5904 5904 5904 5904 5904 5904 5904
5906 5906 5906 5906 5906 5906 5905 5905 5905 5905 5905 5905 5905 5904 5904 5904 5904 5904 5904 5904 5904 5904 5905 5905 5905 5905 5905 5905 5905 5905 5905 5905 5905 5905 5905 5905 5905 5905 5906 5905 5905 5905 5905
5907 5907 5907 5907 5907 5907 5907 5906 5906 5906 5906 5906 5906 5906 5906 5906 5906 5906 5906 5906 5906 5906 5906 5906 5906 5906 5906 5906 5906 5906 5907 5907 5907 5907 5907 5907 5907 5907 5907 5907 5907 5907 5907
5908 5908 5908 5908 5908 5908 5908 5908 5907 5907 5907 5907 5907 5907 5907 5907 5907 5907 5907 5907 5907 5907 5907 5907 5907 5907 5907 5907 5907 5908 5908 5908 5908 5908 5908 5908 5908 5908 5908 5908 5908 5908 5908
5909 5909 5909 5909 5909 5909 5909 5909 5908 5908 5908 5908 5908 5908 5908 5908 5908 5908 5908 5908 5908 5908 5908 5908 5908 5908 5908 5908 5908 5909 5909 5909 5909 5909 5909 5909 5909 5909 5909 5909 5909 5909 5909
5910 5909 5910 5910 5910 5910 5909 5909 5909 5909 5909 5909 5909 5909 5909 5909 5909 5909 5908 5909 5909 5909 5909 5909 5909 5909 5909 5909 5909 5910 5910 5910 5910 5910 5910 5910 5910 5910 5910 5910 5910 5910 5910
5910 5910 5910 5910 5910 5910 5910 5910 5910 5910 5909 5909 5910 5909 5909 5909 5909 5909 5909 5909 5909 5910 5910 5910 5910 5910 5910 5910 5910 5910 5911 5911 5911 5911 5911 5911 5911 5911 5911 5911 5911 5911 5911
5911 5911 5911 5911 5911 5910 5910 5910 5910 5910 5910 5910 5910 5910 5910 5910 5910 5910 5910 5910 5910 5910 5910 5910 5910 5910 5910 5911 5911 5911 5911 5912 5912 5912 5912 5912 5912 5912 5912 5912 5912 5912 5911
5912 5911 5911 5911 5911 5911 5911 5911 5911 5911 5911 5911 5911 5911 5911 5911 5911 5911 5911 5910 5910 5911 5911 5911 5911 5911 5911 5911 5912 5912 5912 5912 5912 5912 5912 5912 5912 5912 5912 5912 5912 5912 5912
5912 5912 5912 5911 5911 5911 5911 5911 5911 5911 5911 5911 5911 5911 5911 5911 5911 5911 5911 5911 5911 5911 5911 5911 5911 5912 5912 5912 5912 5913 5913 5913 5913 5913 5913 5913 5913 5913 5912 5912 5912 5912 5912
5913 5912 5912 5912 5911 5911 5911 5911 5911 5911 5911 5911 5911 5911 5911 5911 5911 5911 5911 5911 5912 5911 5911 5912 5912 5912 5912 5913 5913 5913 5913 5913 5913 5913 5913 5913 5913 5913 5912 5912 5912 5912 5911
5913 5913 5912 5912 5911 5911 5911 5910 5910 5910 5910 5910 5911 5911 5911 5911 5911 5911 5911 5911 5912 5912 5912 5912 5912 5912 5913 5913 5913 5914 5914 5914 5914 5914 5913 5913 5913 5913 5912 5912 5912 5911 5911
5913 5913 5912 5911 5911 5911 5911 5910 5910 5910 5910 5910 5910 5910 5911 5911 5911 5911 5911 5911 5912 5912 5912 5912 5912 5913 5913 5913 5913 5914 5914 5914 5914 5914 5913 5913 5913 5913 5912 5912 5911 5911 5911
5914 5913 5912 5911 5911 5911 5910 5910 5909 5909 5909 5909 5910 5910 5910 5910 5911 5911 5911 5911 5911 5911 5912 5912 5912 5913 5913 5913 5913 5913 5914 5914 5914 5914 5913 5913 5913 5913 5912 5912 5911 5911 5910
5914 5913 5912 5911 5911 5910 5909 5909 5909 5908 5908 5908 5909 5909 5909 5910 5910 5910 5910 5911 5911 5911 5911 5912 5912 5912 5913 5913 5913 5913 5913 5913 5913 5913 5913 5913 5913 5912 5912 5911 5911 5910 5910
5914 5912 5911 5911 5910 5909 5909 5908 5908 5908 5907 5907 5907 5908 5908 5909 5909 5909 5909 5910 5910 5910 5911 5911 5911 5912 5912 5912 5913 5913 5913 5913 5913 5913 5913 5913 5912 5912 5911 5911 5911 5910 5910
5914 5912 5911 5910 5909 5909 5908 5907 5907 5906 5906 5906 5906 5906 5906 5907 5908 5908 5908 5909 5909 5909 5910 5910 5911 5911 5911 5912 5912 5912 5912 5912 5912 5912 5912 5912 5912 5911 5911 5910 5910 5910 5909
5914 5912 5911 5910 5909 5908 5907 5906 5905 5905 5905 5904 5904 5904 5905 5905 5906 5906 5907 5907 5908 5908 5909 5909 5910 5910 5910 5911 5911 5911 5911 5911 5911 5911 5911 5911 5911 5910 5910 5910 5909 5909 5909
5913 5912 5911 5909 5908 5907 5906 5905 5904 5904 5903 5903 5902 5902 5902 5903 5903 5904 5904 5905 5906 5906 5907 5908 5908 5908 5909 5909 5910 5910 5910 5910 5910 5910 5910 5910 5910 5909 5909 5909 5908 5908 5908
5913 5912 5910 5909 5908 5907 5905 5904 5903 5903 5902 5901 5900 5900 5900 5901 5901 5901 5902 5903 5903 5904 5905 5906 5906 5906 5907 5907 5908 5908 5909 5909 5909 5909 5909 5909 5908 5908 5908 5907 5907 5906 5906
5912 5911 5909 5907 5906 5905 5904 5903 5902 5901 5900 5899 5898 5897 5897 5897 5898 5899 5899 5900 5901 5901 5902 5903 5904 5905 5905 5905 5906 5906 5907 5908 5907 5907 5907 5907 5907 5906 5906 5906 5905 5905 5904
5911 5909 5907 5906 5904 5903 5902 5901 5900 5899 5898 5897 5896 5895 5894 5894 5895 5896 5897 5897 5898 5898 5899 5900 5901 5902 5903 5903 5903 5904 5905 5905 5905 5905 5905 5905 5905 5904 5904 5903 5903 5902 5902
5909 5907 5906 5904 5903 5901 5900 5899 5897 5897 5896 5894 5893 5893 5892 5891 5891 5893 5893 5894 5895 5896 5897 5897 5898 5899 5900 5900 5901 5901 5902 5902 5902 5902 5903 5902 5902 5901 5901 5901 5900 5900 5899
5908 5906 5904 5903 5901 5900 5898 5897 5896 5894 5893 5892 5891 5890 5889 5889 5889 5889 5890 5891 5892 5893 5893 5894 5895 5896 5896 5897 5897 5898 5898 5899 5899 5899 5899 5899 5898 5898 5898 5897 5897 5896 5896
5906 5904 5902 5901 5900 5898 5896 5895 5894 5892 5891 5890 5889 5888 5887 5886 5886 5886 5887 5887 5888 5889 5890 5890 5891 5892 5892 5893 5894 5894 5894 5895 5895 5895 5895 5895 5894 5894 5894 5893 5893 5892 5891